TimeEST,TemperatureF,Dew PointF,Humidity,Sea Level PressureIn,VisibilityMPH,Wind Direction,Wind SpeedMPH,Gust SpeedMPH,PrecipitationIn,Events,Conditions,WindDirDegrees,DateUTC
12:54 AM,33.1,23.0,66,29.76,10.0,SW,19.6,26.5,N/A,,Clear,220,2014-01-20 05:54:00
1:54 AM,35.1,23.0,61,29.73,10.0,SW,18.4,-,N/A,,Clear,230,2014-01-20 06:54:00
2:54 AM,35.1,23.0,61,29.73,10.0,SW,21.9,-,N/A,,Clear,230,2014-01-20 07:54:00
3:54 AM,34.0,23.0,64,29.74,10.0,SW,19.6,-,N/A,,Clear,230,2014-01-20 08:54:00
4:54 AM,33.1,23.0,66,29.75,10.0,SW,15.0,-,N/A,,Clear,230,2014-01-20 09:54:00
5:54 AM,33.1,23.0,66,29.77,10.0,SW,13.8,-,N/A,,Clear,230,2014-01-20 10:54:00
6:54 AM,32.0,23.0,69,29.80,10.0,WSW,11.5,-,N/A,,Clear,240,2014-01-20 11:54:00
7:34 AM,32.0,24.1,73,29.74,10.0,WSW,10.4,-,N/A,,Mostly Cloudy,250,2014-01-20 12:34:00
7:54 AM,33.1,25.0,72,29.82,10.0,WSW,11.5,-,N/A,,Overcast,240,2014-01-20 12:54:00
8:54 AM,35.1,26.1,70,29.85,10.0,West,13.8,23.0,N/A,,Overcast,270,2014-01-20 13:54:00
9:27 AM,35.1,27.0,72,29.80,10.0,West,13.8,-,N/A,,Overcast,270,2014-01-20 14:27:00
9:54 AM,36.0,27.0,70,29.88,10.0,West,12.7,-,N/A,,Overcast,270,2014-01-20 14:54:00
10:54 AM,36.0,28.0,73,29.90,10.0,West,11.5,-,N/A,,Overcast,280,2014-01-20 15:54:00
11:54 AM,37.9,27.0,65,29.92,10.0,West,9.2,19.6,N/A,,Partly Cloudy,270,2014-01-20 16:54:00
12:54 PM,39.0,28.0,65,29.90,10.0,WSW,12.7,-,N/A,,Mostly Cloudy,250,2014-01-20 17:54:00
1:17 PM,39.0,28.0,65,29.83,10.0,WNW,13.8,-,N/A,,Scattered Clouds,300,2014-01-20 18:17:00
1:54 PM,39.0,27.0,62,29.90,10.0,WNW,11.5,-,N/A,,Clear,290,2014-01-20 18:54:00
2:54 PM,39.0,27.0,62,29.90,10.0,West,12.7,-,N/A,,Partly Cloudy,280,2014-01-20 19:54:00
3:54 PM,37.0,27.0,67,29.93,10.0,NW,8.1,-,N/A,,Mostly Cloudy,320,2014-01-20 20:54:00
4:54 PM,37.0,27.0,67,29.96,10.0,NNW,10.4,-,N/A,,Mostly Cloudy,330,2014-01-20 21:54:00
5:54 PM,34.0,27.0,75,29.97,10.0,NNW,10.4,-,N/A,,Partly Cloudy,340,2014-01-20 22:54:00
6:54 PM,32.0,27.0,82,29.99,10.0,North,5.8,-,N/A,,Mostly Cloudy,360,2014-01-20 23:54:00
7:54 PM,32.0,27.0,82,29.98,10.0,Calm,Calm,-,N/A,,Overcast,0,2014-01-21 00:54:00
8:54 PM,32.0,27.0,82,29.96,10.0,North,3.5,-,N/A,,Overcast,360,2014-01-21 01:54:00
9:54 PM,30.0,28.0,92,29.95,9.0,South,3.5,-,N/A,,Overcast,170,2014-01-21 02:54:00
10:54 PM,30.9,28.0,89,29.94,4.0,NE,3.5,-,0.00,Snow,Light Snow,40,2014-01-21 03:54:00
11:16 PM,30.9,28.0,89,29.87,2.0,NE,3.5,-,0.00,Snow,Light Snow,50,2014-01-21 04:16:00
11:27 PM,30.9,28.0,89,29.87,2.0,Calm,Calm,-,0.00,Snow,Light Snow,0,2014-01-21 04:27:00
11:37 PM,30.0,28.0,92,29.86,1.5,Calm,Calm,-,0.01,Snow,Light Snow,0,2014-01-21 04:37:00
11:54 PM,30.0,28.9,96,29.93,1.2,ENE,3.5,-,0.01,Snow,Light Snow,70,2014-01-21 04:54:00